{"data":{"norad_id":47898,"epoch":"2026-05-25T01:13:42.942144Z","epoch_age_seconds":81277,"freshness":"FRESH","line1":"1 47898U 21021AQ  26145.05119146 -.00000489  00000+0 -39835-5 0  9992","line2":"2 47898  53.1597 272.9287 0001065  85.0067 275.1056 15.31721114287899","mean_motion":15.31721114,"eccentricity":0.0001065,"inclination_deg":53.1597,"raan_deg":272.9287,"arg_perigee_deg":85.0067,"mean_anomaly_deg":275.1056,"bstar":-3.9835e-6,"rev_number":28789,"period_min":94.011892036895,"perigee_km":469.94765751634,"apogee_km":471.40645491031,"semimajor_km":6848.8140562133,"source":"CELESTRAK","updated_at":"2026-05-25T13:38:16.612611Z"}}